Powrót do katalogu

BREEZE-M DEB

LostHEO
NORAD 39933·DEBRIS·🇷🇺 Russia

Wystrzelony Feb 28, 2006 z Baikonur Cosmodrome

Loading…

Następne Przeloty (najbliższe 24 godziny)

TLE

NieaktualneSource: Space-Track

Epoka: Mar 25, 2021, 01:50 UTC

1 39933U 06006DF  21084.07652881  .00000092  00000-0  18623-3 0  9995
2 39933  51.9818 292.0411 5121115 236.1406  64.3846  5.17735712201909

Śledź BREEZE-M DEB w czasie rzeczywistym z AllMySat

Download on the App Store